Fort Meade, MD

12:57 PM EDT on June 23, 2017 (GMT -0400)
Tipton

Weather History for KFME - May, 2014

Change the Weather History Date:

Tuesday, May 6, 2014

  Actual Average (KBWI) Record (KBWI)
Temperature  
Mean Temperature 58 °F -  
Max Temperature 71 °F 73 °F 92 °F (1949)
Min Temperature 46 °F 50 °F 40 °F (1925)
Degree Days  
Heating Degree Days 6    
Growing Degree Days 8 (Base 50)    
Moisture  
Dew Point 44 °F    
Average Humidity 65    
Maximum Humidity 94    
Minimum Humidity 29    
Precipitation  
Precipitation 0.00 in - - ()
Sea Level Pressure  
Sea Level Pressure 29.98 in    
Wind  
Wind Speed 2 mph (West)    
Max Wind Speed 12 mph    
Max Gust Speed 16 mph    
Visibility 9 miles    
Events      
Averages and records for this station are not official NWS values.
T = Trace of Precipitation, MM = Missing Value Source: NWS Daily Summary

Daily Weather History Graph

Daily Weather History Graph

Search for Another Location

Airport or City:

Trip Planner

Search our weather history database for the weather conditions in past years. The results will help you decide how hot, cold, wet, or windy it might be!

Date:

Astronomy

May. 06, 2014 Rise Set
Actual Time 6:03 AM EDT 8:04 PM EDT
Civil Twilight 5:33 AM EDT 8:34 PM EDT
Nautical Twilight 4:58 AM EDT 9:10 PM EDT
Astronomical Twilight 4:19 AM EDT 9:48 PM EDT
Moon 12:16 PM EDT (5/6) 1:23 AM EDT (5/6)
Length of Visible Light 15h 00m
Length of Day
14h 01m
Waxing Crescent, 46% of the Moon is Illuminated
May 6
Waxing Crescent
May 6
First Quarter
May 14
Full
May 21
Last Quarter
May 28
New

Hourly Weather History & Observations

Time (EDT) Temp. Dew Point Humidity Pressure Visibility Wind Dir Wind Speed Gust Speed Precip Events Conditions
12:06 AM 48.2 °F 44.6 °F 87% 29.94 in 10.0 mi Calm Calm - N/A   Overcast
12:27 AM 46.4 °F 44.6 °F 93% 29.95 in 10.0 mi Calm Calm - N/A   Mostly Cloudy
12:48 AM 46.4 °F 44.6 °F 93% 29.95 in 10.0 mi Calm Calm - N/A   Overcast
1:06 AM 48.2 °F 46.4 °F 93% 29.95 in 10.0 mi Calm Calm - N/A   Overcast
1:27 AM 48.2 °F 46.4 °F 93% 29.95 in 10.0 mi Calm Calm - N/A   Overcast
1:48 AM 48.2 °F 46.4 °F 93% 29.94 in 10.0 mi Calm Calm - N/A   Overcast
2:06 AM 50.0 °F 46.4 °F 87% 29.96 in 10.0 mi SW 4.6 mph - N/A   Overcast
2:27 AM 48.2 °F 46.4 °F 93% 29.95 in 10.0 mi Calm Calm - N/A   Overcast
2:48 AM 50.0 °F 46.4 °F 87% 29.95 in 10.0 mi SW 3.5 mph - N/A   Overcast
3:06 AM 48.2 °F 46.4 °F 93% 29.95 in 10.0 mi SSW 3.5 mph - N/A   Overcast
3:27 AM 50.0 °F 46.4 °F 87% 29.95 in 10.0 mi Calm Calm - N/A   Overcast
3:48 AM 50.0 °F 46.4 °F 87% 29.94 in 7.0 mi Calm Calm - N/A   Overcast
4:27 AM 50.0 °F 46.4 °F 87% 29.93 in 5.0 mi Calm Calm - N/A   Overcast
5:09 AM 50.0 °F 48.2 °F 94% 29.95 in 4.0 mi Calm Calm - N/A   Overcast
5:27 AM 50.0 °F 46.4 °F 87% 29.94 in 4.0 mi Calm Calm - N/A   Overcast
5:48 AM 50.0 °F 48.2 °F 94% 29.95 in 4.0 mi Calm Calm - N/A   Overcast
6:09 AM 50.0 °F 48.2 °F 94% 29.96 in 7.0 mi Calm Calm - N/A   Overcast
6:27 AM 50.0 °F 46.4 °F 87% 29.97 in 4.0 mi Calm Calm - N/A   Overcast
6:48 AM 50.0 °F 48.2 °F 94% 29.98 in 5.0 mi Calm Calm - N/A   Overcast
7:48 AM 51.8 °F 48.2 °F 88% 29.99 in 7.0 mi East 3.5 mph - N/A   Overcast
8:09 AM 51.8 °F 48.2 °F 88% 29.99 in 10.0 mi Calm Calm - N/A   Overcast
8:27 AM 53.6 °F 48.2 °F 82% 30.00 in 10.0 mi Calm Calm - N/A   Overcast
8:48 AM 53.6 °F 48.2 °F 82% 30.00 in 10.0 mi Calm Calm - N/A   Overcast
9:09 AM 55.4 °F 50.0 °F 82% 30.00 in 10.0 mi Calm Calm - N/A   Overcast
9:27 AM 57.2 °F 46.4 °F 67% 29.99 in 10.0 mi Calm Calm - N/A   Mostly Cloudy
10:09 AM 60.8 °F 44.6 °F 55% 29.99 in 10.0 mi SW 4.6 mph - N/A   Scattered Clouds
10:27 AM 62.6 °F 44.6 °F 52% 29.99 in 10.0 mi West 6.9 mph - N/A   Clear
10:48 AM 62.6 °F 42.8 °F 48% 29.99 in 10.0 mi West 5.8 mph - N/A   Clear
11:09 AM 64.4 °F 41.0 °F 42% 29.99 in 10.0 mi SSW 5.8 mph - N/A   Clear
11:27 AM 62.6 °F 41.0 °F 45% 29.99 in 10.0 mi West 5.8 mph - N/A   Clear
11:48 AM 64.4 °F 42.8 °F 45% 29.98 in 10.0 mi South 6.9 mph - N/A   Clear
12:09 PM 64.4 °F 41.0 °F 42% 29.97 in 10.0 mi West 5.8 mph - N/A   Clear
12:27 PM 68.0 °F 42.8 °F 40% 29.97 in 10.0 mi West 8.1 mph - N/A   Clear
12:48 PM 68.0 °F 41.0 °F 37% 29.97 in 10.0 mi Calm Calm - N/A   Clear
1:09 PM 68.0 °F 41.0 °F 37% 29.97 in 10.0 mi WNW 11.5 mph - N/A   Clear
1:48 PM 69.8 °F 42.8 °F 38% 29.95 in 10.0 mi WNW 8.1 mph - N/A   Clear
2:09 PM 68.0 °F 41.0 °F 37% 29.95 in 10.0 mi West 5.8 mph - N/A   Clear
2:30 PM 69.8 °F 41.0 °F 35% 29.95 in 10.0 mi WNW 9.2 mph - N/A   Clear
2:48 PM 71.6 °F 41.0 °F 33% 29.95 in 10.0 mi West 10.4 mph - N/A   Clear
3:09 PM 68.0 °F 41.0 °F 37% 29.95 in 10.0 mi North 4.6 mph - N/A   Scattered Clouds
3:30 PM 71.6 °F 41.0 °F 33% 29.94 in 10.0 mi WSW 5.8 mph - N/A   Scattered Clouds
3:48 PM 71.6 °F 39.2 °F 31% 29.94 in 10.0 mi WNW 3.5 mph 16.1 mph N/A   Scattered Clouds
4:09 PM 71.6 °F 41.0 °F 33% 29.94 in 10.0 mi North 5.8 mph - N/A   Clear
4:30 PM 71.6 °F 37.4 °F 29% 29.94 in 10.0 mi West 6.9 mph - N/A   Clear
4:48 PM 71.6 °F 39.2 °F 31% 29.95 in 10.0 mi WNW 5.8 mph - N/A   Clear
5:09 PM 71.6 °F 39.2 °F 31% 29.95 in 10.0 mi WNW 6.9 mph - N/A   Clear
5:30 PM 71.6 °F 39.2 °F 31% 29.96 in 10.0 mi Calm Calm - N/A   Clear
5:48 PM 69.8 °F 37.4 °F 31% 29.96 in 10.0 mi NW 5.8 mph - N/A   Clear
6:09 PM 69.8 °F 41.0 °F 35% 29.96 in 10.0 mi NNE 6.9 mph - N/A   Clear
6:30 PM 69.8 °F 39.2 °F 33% 29.97 in 10.0 mi North 4.6 mph - N/A   Clear
6:48 PM 69.8 °F 41.0 °F 35% 29.97 in 10.0 mi Calm Calm - N/A   Clear
7:09 PM 68.0 °F 41.0 °F 37% 29.98 in 10.0 mi Calm Calm - N/A   Clear
7:30 PM 64.4 °F 42.8 °F 45% 29.98 in 10.0 mi NNE 3.5 mph - N/A   Clear
7:48 PM 62.6 °F 42.8 °F 48% 29.99 in 10.0 mi Calm Calm - N/A   Clear
8:09 PM 59.0 °F 44.6 °F 59% 30.00 in 10.0 mi Calm Calm - N/A   Clear
8:30 PM 57.2 °F 46.4 °F 67% 30.01 in 10.0 mi Calm Calm - N/A   Clear
8:48 PM 55.4 °F 46.4 °F 72% 30.02 in 10.0 mi Calm Calm - N/A   Clear
9:09 PM 53.6 °F 44.6 °F 72% 30.02 in 10.0 mi Calm Calm - N/A   Clear
9:30 PM 53.6 °F 44.6 °F 72% 30.03 in 10.0 mi Calm Calm - N/A   Clear
9:48 PM 51.8 °F 46.4 °F 82% 30.04 in 10.0 mi Calm Calm - N/A   Clear
10:09 PM 51.8 °F 46.4 °F 82% 30.05 in 10.0 mi Calm Calm - N/A   Clear
10:30 PM 50.0 °F 46.4 °F 87% 30.06 in 10.0 mi Calm Calm - N/A   Clear
10:51 PM 50.0 °F 46.4 °F 87% 30.06 in 10.0 mi Calm Calm - N/A   Clear
11:09 PM 50.0 °F 46.4 °F 87% 30.06 in 10.0 mi Calm Calm - N/A   Clear
11:30 PM 48.2 °F 44.6 °F 87% 30.07 in 10.0 mi Calm Calm - N/A   Clear
11:51 PM 46.4 °F 44.6 °F 93% 30.07 in 10.0 mi Calm Calm - N/A   Clear